Regional Weather Roundup
Issued by NWS

Home | Current Version | Previous Version | Graphics & Text | Print | Product List | Glossary On
Versions: 1 2 3 4 5 6 7 8 9 10 11 12 13 14 15 16 17 18 19 20 21 22 23 24 25 26 27 28 29 30 31 32 33 34 35 36 37 38 39 40 41 42 43 44 45 46 47 48 49 50
000
ASUS43 KLSX 251959
RWRMO

WEATHER SUMMARY FOR MISSOURI
NATIONAL WEATHER SERVICE SPRINGFIELD MO
300 PM CDT THU MAY 25 2017

NOTE: "FAIR" INDICATES FEW OR NO CLOUDS BELOW 12,000 FEET WITH NO
       SIGNIFICANT WEATHER AND/OR OBSTRUCTIONS TO VISIBILITY.
       CURRENT SKY AND/OR WEATHER CONDITIONS ARE NOT AVAILABLE FOR
       CHILLICOTHE AND FARMINGTON.

MOZ001>031-035>038-043-044-053-054-252100-
...NORTHERN AND WESTERN MISSOURI...

CITY           SKY/WX    TMP DP  RH WIND       PRES   REMARKS
KANSAS CTY INT MOSUNNY   74  54  49 SE16G23   29.64F
KANSAS C DTWN  SUNNY     76  53  44 S7        29.63F
LEE`S SUMMIT   SUNNY     73  53  49 S10       29.66F
ST JOSEPH      SUNNY     76  53  44 S12G22    29.62F
CHILLICOTHE      N/A     72  52  49 S6        29.68F
KIRKSVILLE     SUNNY     70  51  51 S8        29.70F

$$
MOZ066>068-077>081-088>096-101>105-252100-
...SOUTHWEST MISSOURI...

CITY           SKY/WX    TMP DP  RH WIND       PRES   REMARKS
SPRINGFIELD    SUNNY     74  52  46 S10       29.70F
JOPLIN         SUNNY     79  57  46 S12       29.66F
BRANSON        MOSUNNY   75  54  46 S6        29.74F

$$
MOZ032>034-039>042-045>050-055>058-069>072-252100-
...CENTRAL MISSOURI...

CITY           SKY/WX    TMP DP  RH WIND       PRES   REMARKS
COLUMBIA       SUNNY     72  50  45 S10       29.71F
JEFFERSON CITY SUNNY     74  48  39 S10       29.71F
SEDALIA        SUNNY     74  54  49 S8        29.70F
OSAGE BEACH    SUNNY     73  51  46 VRB5      29.71F

$$
MOZ051-052-059>065-252100-
...EAST CENTRAL MISSOURI...

CITY           SKY/WX    TMP DP  RH WIND       PRES   REMARKS
ST LOUIS INTL  MOSUNNY   76  51  41 W12G17    29.72S
SPIRIT OF STL  MOSUNNY   74  50  42 SW9       29.71F
ST CHARLES     SUNNY     74  51  44 VRB7G18   29.70F

$$
MOZ072>076-082>087-097>100-106>115-252100-
...SOUTH CENTRAL AND SOUTHEAST MISSOURI...

CITY           SKY/WX    TMP DP  RH WIND       PRES   REMARKS
CAPE GIRARDEAU MOSUNNY   74  48  39 W10       29.73F
FARMINGTON     SUNNY     73  51  46 VRB7      29.74F
POPLAR BLUFF   MOSUNNY   75  53  46 SW5       29.75S
WEST PLAINS    SUNNY     72  50  45 S9        29.76F

$$




USA.gov is the U.S. government's official web portal to all federal, state and local government web resources and services.